Weather Roundup
Issued by NWS

Home | Current Version | Previous Version | Text Only | Print | Product List | Glossary On
Versions: 1 2 3 4 5 6 7 8 9 10 11 12 13 14 15 16 17 18 19 20 21 22 23 24 25 26 27 28 29 30 31 32 33 34 35 36 37 38 39 40 41 42 43 44 45 46 47 48 49 50
420
NZUS93 KARX 241410
HRRWXR

CURRENT HOURLY OBSERVATIONS ACROSS
MUCH OF THE UPPER MISSISSIPPI VALLEY
NATIONAL WEATHER SERVICE LA CROSSE WI
900 AM CDT TUE APR 24 2018


...SOUTHEAST MINNESOTA...


CITY           SKY/WX    TMP DP  RH WIND       PRES   REMARKS
ROCHESTER      FAIR      56  43  61 N3        30.13S
ROCHESTER/MAYO FAIR      53  39  59 CALM      30.12F
WINONA         FAIR      48  36  61 CALM      30.11F
AUSTIN         FAIR      55  43  62 N5        30.12S
ALBERT LEA     FAIR      55  39  54 NW3       30.13S
DODGE CENTER   FAIR      55  43  62 N3        30.12S
PRESTON        FAIR      54  40  58 N5        30.12F
OWATONNA       FAIR      52  45  76 CALM      30.13S
FARIBAULT      NOT AVBL
$$

...ELSEWHERE IN MINNESOTA...


CITY           SKY/WX    TMP DP  RH WIND       PRES   REMARKS
MINNEAPOLIS    FAIR      58  42  55 NW5       30.13R
INTNL FALLS    FAIR      42  29  59 NW13      30.27S
DULUTH         CLOUDY    48  30  49 E10       30.21R
RED WING       FAIR      50  36  57 CALM      30.11F
REDWOOD FALLS  CLOUDY    48  39  71 NW10      30.18R
MANKATO        FAIR      53  42  66 NW5       30.15R
WORTHINGTON    CLOUDY    46  40  79 NW7       30.18R
FAIRMONT       MOSUNNY   51  40  65 NW9       30.16S
$$

...SOUTHWEST WISCONSIN...


CITY           SKY/WX    TMP DP  RH WIND       PRES   REMARKS
LA CROSSE      FAIR      52  39  61 NW3       30.12F
PRAIRIE DU CHI FAIR      49  36  61 CALM      30.12F
BOSCOBEL       FAIR      50  36  58 CALM      30.12F
LONE ROCK      FAIR      47  38  71 W3        30.12F
PLATTEVILLE    FAIR      57  35  43 N3        30.11F
FORT MC COY    FAIR      49  33  53 CALM      30.12F
MAUSTON-NEW LI FAIR      51  34  51 CALM      30.11F
VIROQUA        FAIR      56  35  44 N3        30.11F
WIS DELLS      FAIR      51  32  48 CALM      30.11F
$$

...ELSEWHERE IN WISCONSIN...


CITY           SKY/WX    TMP DP  RH WIND       PRES   REMARKS
MILWAUKEE      PTSUNNY   49  33  54 N5        30.09F
MADISON        FAIR      56  32  40 NE6       30.09F
GREEN BAY      FAIR      50  33  52 CALM      30.10F
EAU CLAIRE     FAIR      52  37  56 CALM      30.11F
BLACK RVR FLS  FAIR      51  31  45 CALM      30.12F
MEDFORD        FAIR      54  35  48 NW3       30.11F
WAUSAU         FAIR      50  31  48 NW5       30.09F
WIS RAPIDS     FAIR      54  28  36 VRB3      30.12F
MARSHFIELD     FAIR      57  34  41 N8        30.10S
RICE LAKE      FAIR      48  35  61 N10       30.14F
$$

...NORTHEAST IOWA...


CITY           SKY/WX    TMP DP  RH WIND       PRES   REMARKS
WATERLOO       FAIR      54  41  61 CALM      30.11F
DUBUQUE        FAIR      54  33  45 NE6       30.10F
DECORAH        FAIR      48  34  57 CALM      30.11S
MASON CITY     SUNNY     54  44  69 N8        30.14R
CHARLES CITY   FAIR      55  41  58 CALM      30.12S
OELWEIN        FAIR      59  36  41 N5        30.11F
$$

...ELSEWHERE IN IOWA...


CITY           SKY/WX    TMP DP  RH WIND       PRES   REMARKS
DES MOINES     MOSUNNY   59  37  44 CALM      30.12S
IOWA CITY      FAIR      59  31  34 NE3       30.11F
FORT DODGE     SUNNY     53  44  71 N3        30.15R
MARSHALLTOWN   SUNNY     58  39  49 NE5       30.10F
CEDAR RAPIDS   FAIR      57  35  43 NE5       30.09F
$$

...NORTHERN ILLINOIS...


CITY           SKY/WX    TMP DP  RH WIND       PRES   REMARKS
CHICAGO-OHARE  PTSUNNY   52  41  66 N7        30.06S
CHICAGO-MIDWAY PTSUNNY   56  45  66 N6        30.06S
MOLINE         FAIR      59  30  33 N5        30.08S
ROCKFORD       PTSUNNY   55  29  36 N12       30.10S
PEORIA         CLOUDY    55  46  71 N6        30.06S
$$

NOTE: "FAIR" INDICATES FEW OR NO CLOUDS BELOW 12,000 FEET WITH NO
SIGNIFICANT WEATHER AND/OR OBSTRUCTIONS TO VISIBILITY. WIND
SPEEDS ARE IN MILES-PER-HOUR.




USA.gov is the U.S. government's official web portal to all federal, state and local government web resources and services.